CW3442 Weather Reports


Display with metric or nautical units.
time (UTC)temp
F
wind
direction
speed
MPH
gust
MPH
rain 1hr
in
rain 24hr
in
rain mn
in
humidity
%
barometer
mb
20260904160533 73 170 0.0 0.0 0.00 0.00 0.00 70 1007.1
20260904153542 73 170 0.0 0.0 0.00 0.00 0.00 71 1007.4
20260904150530 72 164 0.0 0.0 0.00 0.00 0.00 73 1007.6
20260904143544 71 169 0.0 0.0 0.00 0.00 0.00 75 1007.5
20260904140532 69 169 0.0 0.0 0.00 0.00 0.00 80 1007.5
20260904133524 67 169 0.0 0.0 0.00 0.00 0.00 83 1007.6
20260904130541 67 169 0.0 0.0 0.00 0.00 0.00 84 1007.5
20260904123534 66 169 0.0 0.0 0.00 0.00 0.00 86 1007.5
20260904120530 65 169 0.0 0.0 0.00 0.00 0.00 87 1007.5
20260904113526 64 169 0.0 0.0 0.00 0.00 0.00 88 1007.4
20260904110542 64 169 0.0 0.0 0.00 0.00 0.00 88 1006.9
20260904103535 64 169 0.0 0.0 0.00 0.00 0.00 89 1006.5
20260904100524 64 169 0.0 0.0 0.00 0.00 0.00 88 1006.3
20260904093527 64 169 0.0 0.0 0.00 0.00 0.00 89 1006.4
20260904090539 64 169 0.0 0.0 0.00 0.00 0.00 90 1006.3
20260904083540 64 169 0.0 0.0 0.00 0.00 0.00 89 1006.2
20260904080540 65 169 0.0 0.0 0.00 0.00 0.00 89 1006.2
20260904073539 65 169 0.0 0.0 0.00 0.00 0.00 89 1006.2
20260904070538 65 169 0.0 0.0 0.00 0.00 0.00 90 1006.2
20260904063530 65 169 0.0 0.0 0.00 0.00 0.00 90 1005.9
20260904060543 65 169 0.0 0.0 0.00 0.00 0.00 89 1006.2
20260904053534 65 169 0.0 0.0 0.00 0.00 0.00 89 1006.3
20260904050554 66 169 0.0 0.0 0.00 0.00 0.00 88 1006.4
20260904043533 67 169 0.0 0.0 0.00 0.00 0.00 86 1006.4
20260904040535 68 169 0.0 0.0 0.00 0.00 0.00 83 1006.4
20260904033551 69 169 0.0 0.0 0.00 0.00 0.00 82 1006.6
20260904030528 69 169 0.0 0.0 0.00 0.00 0.00 81 1006.6
20260904023527 69 169 0.0 0.0 0.00 0.00 0.00 82 1006.6
20260904020543 69 169 0.0 0.0 0.00 0.00 0.00 82 1006.6
20260904013537 70 169 0.0 0.0 0.00 0.00 0.00 80 1006.6
20260904010533 71 169 0.0 0.0 0.00 0.00 0.00 78 1006.5
20260904003525 72 169 0.0 0.0 0.00 0.00 0.00 74 1006.3
20260904000535 73 169 0.0 0.0 0.00 0.00 0.00 72 1006.0
20260903233527 75 169 0.0 0.0 0.00 0.00 0.00 69 1005.6
20260903230526 76 169 0.0 0.0 0.00 0.00 0.00 68 1005.6
20260903223542 77 169 0.0 0.0 0.00 0.00 0.00 67 1005.6
20260903220540 78 169 0.0 0.0 0.00 0.00 0.00 64 1005.7
20260903213536 78 166 0.0 0.0 0.00 0.00 0.00 65 1005.8
20260903210536 78 155 0.0 0.0 0.00 0.00 0.00 64 1005.2
20260903203555 77 189 0.0 0.0 0.00 0.00 0.00 66 1005.6
20260903200537 76 248 0.0 0.0 0.00 0.00 0.00 66 1005.6
20260903193530 76 248 0.0 0.0 0.00 0.00 0.00 63 1005.6
20260903190526 78 245 0.0 0.0 0.00 0.00 0.00 67 1005.6
20260903183541 81 258 0.0 0.0 0.00 0.00 0.00 62 1005.7
20260903180530 80 267 0.0 0.0 0.00 0.00 0.00 65 1005.7
20260903173525 79 221 0.0 0.0 0.00 0.00 0.00 66 1005.7
20260903170549 79 195 0.0 0.0 0.00 0.00 0.00 68 1005.9
20260903163529 77 118 0.0 0.0 0.00 0.00 0.00 72 1006.2